Pagina principale
METAR-TAF:

METAR-TAF

Aeroporti :

Aeroporto di Torino-Aeritalia

Torino, Italia

latitudine: 45-05-20N, longitudine: 007-36-20E, altezza: 288 m

Osservazione

Il bollettino è stato emesso 41 minuti fa, alle 15:50 UTC
Vento 5 kt da sud, variando fra sud-est e sud/sud-ovest
Temperature 20°C
Umidità 28%
Pressione 1022 hPa
Visibilità 10 km o più
nessuna nube inferiore a 1500 m e nessun cumulonembo

METAR: LIMA 221550Z 17005KT 140V210 CAVOK 20/01 Q1022

Ora: 17:31 (16:31 UTC)


TAF: mancante

Osservazioni e previsioni meteorologiche di più di 4000 aeroporti (messaggi METAR e TAF).

Le stazioni disponibili sono rappresentate dai dischi gialli e rossi sulla carta.

Puntare il mouse per vedere il nome della stazione.

Clicca sopra per visualizzare le osservazioni e previsioni meteorologiche.

Per cambiare la mappa : fare clic sui pulsanti verdi con una croce nera per ingrandire, il pulsante verde con un trattino per diminuire, o sulla freccia verde per le mappe adiacenti.


METAR-TAF: